ETD645 OMAA-OBBI

Flight info

Callsign ETD645
Flight time 0h 43m
Altitude 26000
Route DAXIB1P DAXIB Q563 IMGUX N563 ALPOB L768 ORDIG ORDIG1
Aircraft A320/M-SDE2E3FGHIJ1J3J4J5LM1ORWXYZ/LB1D1

Departure

Time 2026-04-30 20:55
Airport Zayed International Airport (OMAA)

Arrival

Time 2026-04-30 21:38
Airport Bahrain International Airport (OBBI)
Time Latitude Longitude Altitude Speed Heading
2026-04-30 20:08 24.45187 54.64610 75 ft 0 kts 192°
2026-04-30 20:41 24.45187 54.64611 75 ft 1 kts 192°
2026-04-30 20:41 24.45211 54.64616 73 ft 4 kts 192°
2026-04-30 20:41 24.45233 54.64621 70 ft 4 kts 190°
2026-04-30 20:42 24.45260 54.64623 64 ft 4 kts 162°
2026-04-30 20:42 24.45281 54.64608 66 ft 4 kts 120°
2026-04-30 20:42 24.45294 54.64558 66 ft 0 kts 100°
2026-04-30 20:44 24.45292 54.64567 65 ft 3 kts 100°
2026-04-30 20:45 24.45271 54.64691 69 ft 12 kts 102°
2026-04-30 20:45 24.45251 54.64786 70 ft 14 kts 105°
2026-04-30 20:45 24.45225 54.64893 73 ft 15 kts 106°
2026-04-30 20:46 24.45025 54.65222 76 ft 20 kts 128°
2026-04-30 20:46 24.44940 54.65342 73 ft 20 kts 128°
2026-04-30 20:47 24.44805 54.65569 77 ft 12 kts 78°
2026-04-30 20:47 24.44862 54.65634 71 ft 13 kts 37°
2026-04-30 20:48 24.44890 54.65798 77 ft 15 kts 133°
2026-04-30 20:48 24.44821 54.65894 77 ft 17 kts 124°
2026-04-30 20:48 24.44751 54.65984 77 ft 15 kts 144°
2026-04-30 20:48 24.44721 54.66028 70 ft 1 kts 123°
2026-04-30 20:49 24.44719 54.66031 72 ft 1 kts 121°
2026-04-30 20:49 24.44711 54.66046 78 ft 4 kts 121°
2026-04-30 20:49 24.44685 54.66085 70 ft 7 kts 137°
2026-04-30 20:50 24.44614 54.66190 77 ft 10 kts 127°
2026-04-30 20:50 24.44569 54.66254 83 ft 11 kts 127°
2026-04-30 20:50 24.44520 54.66321 81 ft 0 kts 129°
2026-04-30 20:50 24.44519 54.66325 80 ft 1 kts 116°
2026-04-30 20:51 24.44518 54.66327 80 ft 1 kts 114°
2026-04-30 20:51 24.44551 54.66325 80 ft 5 kts 347°
2026-04-30 20:51 24.44588 54.66338 79 ft 7 kts 34°
2026-04-30 20:52 24.44633 54.66373 70 ft 9 kts 39°
2026-04-30 20:52 24.44685 54.66390 70 ft 5 kts 317°
2026-04-30 20:52 24.44695 54.66380 78 ft 0 kts 309°
2026-04-30 20:54 24.44696 54.66379 78 ft 0 kts 308°
2026-04-30 20:54 24.44819 54.66205 73 ft 65 kts 307°
2026-04-30 20:54 24.45224 54.65635 74 ft 122 kts 308°
2026-04-30 20:55 24.46565 54.63894 713 ft 155 kts 316°
2026-04-30 20:55 24.47387 54.63118 1256 ft 156 kts 324°
2026-04-30 20:55 24.48290 54.62458 1813 ft 156 kts 332°
2026-04-30 20:56 24.50582 54.61409 2636 ft 195 kts 346°
2026-04-30 20:56 24.51907 54.60982 3470 ft 205 kts 341°
2026-04-30 20:56 24.54791 54.59781 3840 ft 240 kts 340°
2026-04-30 20:57 24.56387 54.59134 4422 ft 248 kts 339°
2026-04-30 20:57 24.58021 54.58480 5124 ft 251 kts 338°
2026-04-30 20:57 24.59669 54.57825 5871 ft 253 kts 337°
2026-04-30 20:58 24.62691 54.55875 7141 ft 262 kts 310°
2026-04-30 20:58 24.63852 54.54275 7602 ft 273 kts 305°
2026-04-30 20:58 24.65018 54.52598 8283 ft 278 kts 305°
2026-04-30 20:58 24.66202 54.50902 9009 ft 281 kts 304°
2026-04-30 20:59 24.68621 54.47452 10294 ft 293 kts 304°
2026-04-30 20:59 24.69911 54.45606 10445 ft 316 kts 304°
2026-04-30 21:00 24.72749 54.41546 10955 ft 347 kts 304°
2026-04-30 21:00 24.75734 54.37291 12129 ft 354 kts 304°
2026-04-30 21:01 24.78761 54.32968 13383 ft 360 kts 304°
2026-04-30 21:01 24.80297 54.30774 13957 ft 363 kts 304°
2026-04-30 21:01 24.83399 54.26351 15050 ft 368 kts 304°
2026-04-30 21:02 24.84992 54.24072 15597 ft 371 kts 304°
2026-04-30 21:02 24.86567 54.21812 16127 ft 374 kts 304°
2026-04-30 21:02 24.88157 54.19527 16661 ft 377 kts 304°
2026-04-30 21:02 24.89761 54.17221 17203 ft 381 kts 304°
2026-04-30 21:03 24.91384 54.14899 17750 ft 384 kts 305°
2026-04-30 21:03 24.93092 54.12615 18276 ft 388 kts 307°
2026-04-30 21:03 24.94890 54.10375 18769 ft 391 kts 309°
2026-04-30 21:03 24.96732 54.08156 19291 ft 394 kts 309°
2026-04-30 21:04 24.98593 54.05932 19819 ft 396 kts 309°
2026-04-30 21:04 25.00465 54.03683 20351 ft 399 kts 309°
2026-04-30 21:04 25.04229 53.99087 21372 ft 403 kts 308°
2026-04-30 21:05 25.06097 53.96776 21862 ft 405 kts 308°
2026-04-30 21:05 25.07972 53.94448 22336 ft 407 kts 308°
2026-04-30 21:05 25.09859 53.92096 22804 ft 410 kts 308°
2026-04-30 21:05 25.11752 53.89738 23264 ft 412 kts 308°
2026-04-30 21:06 25.13661 53.87366 23659 ft 414 kts 308°
2026-04-30 21:06 25.15578 53.84987 24024 ft 416 kts 308°
2026-04-30 21:06 25.17513 53.82583 24390 ft 418 kts 307°
2026-04-30 21:06 25.19439 53.80188 24748 ft 420 kts 307°
2026-04-30 21:07 25.21231 53.77656 25087 ft 417 kts 299°
2026-04-30 21:07 25.22727 53.74912 25419 ft 418 kts 296°
2026-04-30 21:07 25.24327 53.72217 25753 ft 421 kts 300°
2026-04-30 21:07 25.26026 53.69565 26098 ft 423 kts 301°
2026-04-30 21:08 25.27762 53.66928 26428 ft 425 kts 301°
2026-04-30 21:08 25.29520 53.64291 26759 ft 427 kts 301°
2026-04-30 21:08 25.31292 53.61642 27084 ft 429 kts 301°
2026-04-30 21:08 25.33065 53.58981 27404 ft 430 kts 301°
2026-04-30 21:09 25.34832 53.56312 27720 ft 431 kts 301°
2026-04-30 21:09 25.36599 53.53627 28034 ft 433 kts 301°
2026-04-30 21:09 25.38368 53.50929 28339 ft 434 kts 300°
2026-04-30 21:09 25.40138 53.48231 28774 ft 432 kts 300°
2026-04-30 21:10 25.41899 53.45548 29234 ft 430 kts 300°
2026-04-30 21:10 25.43652 53.42876 29693 ft 428 kts 300°
2026-04-30 21:10 25.45399 53.40216 30106 ft 427 kts 300°
2026-04-30 21:10 25.47139 53.37562 30462 ft 425 kts 300°
2026-04-30 21:11 25.48867 53.34912 30807 ft 425 kts 299°
2026-04-30 21:11 25.50596 53.32260 31147 ft 424 kts 299°
2026-04-30 21:11 25.52316 53.29619 31495 ft 424 kts 299°
2026-04-30 21:11 25.54042 53.26973 31848 ft 423 kts 299°
2026-04-30 21:12 25.55763 53.24333 32205 ft 422 kts 299°
2026-04-30 21:12 25.57468 53.21712 32857 ft 411 kts 299°
2026-04-30 21:12 25.59106 53.19204 33981 ft 391 kts 298°
2026-04-30 21:12 25.60662 53.16823 34884 ft 374 kts 298°
2026-04-30 21:13 25.62167 53.14504 35362 ft 369 kts 298°
2026-04-30 21:13 25.63654 53.12192 35644 ft 368 kts 298°
2026-04-30 21:13 25.65135 53.09879 35811 ft 370 kts 298°
2026-04-30 21:13 25.66633 53.07534 35856 ft 376 kts 298°
2026-04-30 21:14 25.69713 53.02726 35856 ft 389 kts 298°
2026-04-30 21:14 25.72408 52.97494 35856 ft 396 kts 291°
2026-04-30 21:15 25.75006 52.91992 35860 ft 409 kts 291°
2026-04-30 21:15 25.77684 52.86322 35862 ft 418 kts 291°
2026-04-30 21:16 25.80391 52.80594 35859 ft 420 kts 291°
2026-04-30 21:16 25.83117 52.74820 35855 ft 420 kts 291°
2026-04-30 21:17 25.85819 52.69074 35861 ft 420 kts 291°
2026-04-30 21:17 25.88517 52.63325 35867 ft 420 kts 291°
2026-04-30 21:18 25.91196 52.57558 35872 ft 420 kts 290°
2026-04-30 21:18 25.93762 52.51743 35871 ft 419 kts 290°
2026-04-30 21:19 25.96292 52.45911 35884 ft 419 kts 290°
2026-04-30 21:19 25.98847 52.40085 35879 ft 420 kts 290°
2026-04-30 21:20 26.01430 52.34271 35884 ft 420 kts 290°
2026-04-30 21:20 26.04040 52.28459 35885 ft 420 kts 290°
2026-04-30 21:21 26.06641 52.22652 35890 ft 420 kts 290°
2026-04-30 21:22 26.10519 52.13920 35894 ft 419 kts 290°
2026-04-30 21:23 26.15255 52.03238 35896 ft 419 kts 290°
2026-04-30 21:23 26.19143 51.94527 35898 ft 419 kts 290°
2026-04-30 21:24 26.21740 51.88737 35898 ft 418 kts 290°
2026-04-30 21:24 26.24300 51.82927 35850 ft 417 kts 289°
2026-04-30 21:25 26.26888 51.77039 34018 ft 429 kts 289°
2026-04-30 21:25 26.28214 51.74056 33044 ft 431 kts 290°
2026-04-30 21:25 26.29550 51.71059 32054 ft 433 kts 290°
2026-04-30 21:26 26.32244 51.65018 30030 ft 437 kts 290°
2026-04-30 21:26 26.33598 51.61988 28786 ft 436 kts 291°
2026-04-30 21:27 26.36308 51.55922 26930 ft 432 kts 291°
2026-04-30 21:27 26.37645 51.52897 26209 ft 426 kts 289°
2026-04-30 21:27 26.38690 51.49840 25497 ft 419 kts 285°
2026-04-30 21:28 26.40625 51.43768 24100 ft 413 kts 286°
2026-04-30 21:28 26.41578 51.40760 23404 ft 411 kts 286°
2026-04-30 21:28 26.43475 51.34808 21969 ft 403 kts 286°
2026-04-30 21:29 26.44412 51.31875 21288 ft 398 kts 285°
2026-04-30 21:29 26.44595 51.23000 19457 ft 380 kts 253°
2026-04-30 21:30 26.42639 51.17566 18347 ft 375 kts 248°
2026-04-30 21:31 26.39674 51.09572 16646 ft 367 kts 248°
2026-04-30 21:31 26.37273 51.04658 15508 ft 353 kts 234°
2026-04-30 21:32 26.34267 51.00358 12984 ft 356 kts 233°
2026-04-30 21:32 26.32728 50.98161 11472 ft 363 kts 233°
2026-04-30 21:32 26.31221 50.96014 11086 ft 338 kts 233°
2026-04-30 21:32 26.29835 50.94042 10948 ft 309 kts 233°
2026-04-30 21:33 26.28564 50.92232 10811 ft 286 kts 233°
2026-04-30 21:33 26.26199 50.88859 9862 ft 271 kts 233°
2026-04-30 21:33 26.25056 50.87231 9196 ft 263 kts 233°
2026-04-30 21:34 26.23920 50.85608 8094 ft 269 kts 233°
2026-04-30 21:34 26.21613 50.82298 6317 ft 268 kts 233°
2026-04-30 21:34 26.20521 50.80655 5454 ft 256 kts 242°
2026-04-30 21:35 26.19845 50.78822 3921 ft 264 kts 262°
2026-04-30 21:35 26.19813 50.76798 2798 ft 255 kts 284°
2026-04-30 21:35 26.20383 50.75008 2062 ft 232 kts 304°
2026-04-30 21:35 26.21203 50.73534 1832 ft 218 kts 307°
2026-04-30 21:36 26.21997 50.72161 1552 ft 203 kts 308°
2026-04-30 21:36 26.22732 50.70889 1324 ft 187 kts 307°
2026-04-30 21:37 26.24555 50.67735 681 ft 142 kts 305°
2026-04-30 21:37 26.25089 50.66816 494 ft 143 kts 305°
2026-04-30 21:37 26.25613 50.65908 308 ft 138 kts 305°
2026-04-30 21:37 26.26136 50.65006 117 ft 139 kts 304°
2026-04-30 21:38 26.26649 50.64114 24 ft 130 kts 302°
2026-04-30 21:38 26.27064 50.63400 15 ft 86 kts 303°
2026-04-30 21:38 26.27259 50.63009 16 ft 43 kts 282°
2026-04-30 21:38 26.27262 50.62755 18 ft 31 kts 275°
2026-04-30 21:39 26.27267 50.62701 18 ft 0 kts 283°
2026-04-30 21:40 26.27266 50.62697 18 ft 1 kts 263°
2026-04-30 21:40 26.27257 50.62676 19 ft 5 kts 245°
2026-04-30 21:40 26.27224 50.62641 18 ft 8 kts 218°
2026-04-30 21:41 26.27204 50.62592 18 ft 3 kts 228°
2026-04-30 21:41 26.27194 50.62599 20 ft 1 kts 112°
2026-04-30 21:41 26.27188 50.62616 19 ft 4 kts 114°
2026-04-30 21:41 26.27171 50.62651 19 ft 6 kts 122°
2026-04-30 21:42 26.27140 50.62704 22 ft 10 kts 123°
2026-04-30 21:42 26.27113 50.62749 20 ft 5 kts 124°